User: anonymous   Login
Location: Béaulencourt
(50.0796°N, 2.8795°E)
Time: 22:22:34
(UTC+00:00)
Language:

Dummy Sat-02 - Orbit

View from above orbital plane
View from above orbital plane
View from above satellite
View from above satellite

Ground track
Ground track

The orbit is defined by the following mean orbital elements,

1 26366U          26069.24338728 +.00000000 +00000-0 +13804-3 0 00005
2 26366  86.3514 176.2343 0003682 285.6253  74.4588 15.29040104    00
Epoch (UTC): 10 March 2026 05:50:28
Eccentricity: 0.0003682
inclination: 86.3514°
perigee height: 476 km
apogee height: 481 km
right ascension of ascending node: 176.2343°
argument of perigee: 285.6253°
revolutions per day: 15.29040104
mean anomaly at epoch: 74.4588°

The dashed part of the orbit path shows where the satellite is in the earth's shadow,  

DLR